Flag for Germany Weather past 2 weeks in Neuwied, Rhineland-Palatinate, Germany

Now
73 °F

Broken clouds.


Feels Like: 76 °F
Forecast: 60 / 83 °F
Wind: 9 mph from Northeast

Location: Buechel

Current Time: Jul 22, 2014 at 1:51:36 PM

Latest Report: Jul 22, 2014 at 1:20 PM


Visibility: 5 mi

Pressure: 30.04 "Hg

Humidity: 69%

Dew point: 63 °F

Location of NeuwiedLocation

Historic Weather in Neuwied — Graph

°F

Neuwied temperature yesterday

Maximum temperature yesterday: 66 °F (at 12:20 AM)
Minimum temperature yesterday: 63 °F (at 4:20 AM)
Average temperature yesterday: 64 °F

Past Weeks' High & Low Weather Summary

 TemperatureHumidityPressure
High86 °F (Jul 18, 4:20 PM)100% (Jul 8, 5:20 AM)30.21 "Hg (Jul 8, 5:20 AM)
Low50 °F (Jul 9, 12:20 AM)29% (Jul 18, 5:20 PM)29.71 "Hg (Jul 9, 4:20 PM)
Average66 °F70%29.99 "Hg
* Reported Jul 7 12:20 PM — Jul 22 12:47 PM, Neuwied, Weather by CustomWeather, © 2014

Note: Actual official high and low records may vary slightly from our data, if they occured in-between our weather recording intervals... More about our weather records

Advertising

Neuwied weather history for previous 24 hours

 ConditionsComfort  
Time TempWeatherWind HumidityBarometerVisibility
12:47 PM
Jul 22
72 °FBroken clouds.10 mph73%30.04 "Hg5 mi
12:20 PM72 °FBroken clouds.12 mph73%30.07 "Hg4 mi
11:20 AM68 °FPartly sunny.9 mph83%30.04 "Hg4 mi
10:20 AM66 °FFog.12 mph88%30.04 "Hg3 mi
9:47 AM66 °FFog.8 mph88%30.04 "Hg2 mi
9:20 AM64 °FFog.8 mph94%30.01 "Hg2 mi
8:20 AM64 °FFog.9 mph94%30.01 "Hg1 mi
7:45 AM64 °FLight rain. Fog.9 mph94%30.01 "Hg2 mi
7:20 AM64 °FLight rain. Fog.9 mph94%30.01 "Hg1 mi
6:20 AM63 °FFog.9 mph100%29.98 "Hg1 mi
5:20 AM63 °FFog.7 mph100%29.98 "Hg1 mi
4:20 AM63 °FFog.9 mph94%29.98 "Hg2 mi
3:20 AM63 °FMild.8 mph100%29.98 "Hg2 mi
2:20 AM63 °FMild.9 mph100%29.98 "Hg1 mi
1:20 AM63 °FMild.7 mph100%29.98 "Hg2 mi
12:20 AM63 °FMild.5 mph94%29.98 "Hg3 mi
11:20 PM
Jul 21
63 °FMild.5 mph94%29.98 "Hg1 mi
10:20 PM63 °FMild.6 mph94%29.98 "Hg4 mi
9:20 PM63 °FMild.6 mph94%29.98 "Hg2 mi
8:20 PM63 °FMild.7 mph94%29.95 "Hg3 mi
7:20 PM63 °FMild.7 mph88%29.95 "Hg4 mi
6:20 PM64 °FMild.8 mph83%29.95 "Hg6 mi
5:20 PM66 °FMild.12 mph83%29.95 "Hg6 mi
4:20 PM64 °FBroken clouds.8 mph88%29.95 "HgN/A
3:20 PM64 °FBroken clouds.9 mph88%29.95 "HgN/A
2:20 PM64 °FBroken clouds.8 mph88%29.92 "HgN/A
1:20 PM64 °FBroken clouds.9 mph94%29.92 "Hg5 mi
Weather by CustomWeather, © 2014

See weather overviewHow to use our weather pages